Jasper, TX

6:02 AM CDT on August 23, 2017 (GMT -0500)
Jasper County-Bell

Weather History for KJAS - May, 2013

Change the Weather History Date:

Friday, May 3, 2013

  Actual Average (KPOE) Record (KPOE)
Temperature  
Mean Temperature 54 °F -  
Max Temperature 65 °F 80 °F 89 °F (2002)
Min Temperature 44 °F 61 °F 44 °F (2013)
Degree Days  
Heating Degree Days 10    
Growing Degree Days 4 (Base 50)    
Moisture  
Dew Point 40 °F    
Average Humidity 65    
Maximum Humidity 94    
Minimum Humidity 26    
Precipitation  
Precipitation 0.00 in - - ()
Sea Level Pressure  
Sea Level Pressure 30.12 in    
Wind  
Wind Speed 13 mph (NW)    
Max Wind Speed 22 mph    
Max Gust Speed 31 mph    
Visibility 10 miles    
Events      
Averages and records for this station are not official NWS values.
T = Trace of Precipitation, MM = Missing Value Source: NWS Daily Summary

Daily Weather History Graph

Daily Weather History Graph

Search for Another Location

Airport or City:

Trip Planner

Search our weather history database for the weather conditions in past years. The results will help you decide how hot, cold, wet, or windy it might be!

Date:

Astronomy

May. 03, 2013 Rise Set
Actual Time 6:30 AM CDT 7:56 PM CDT
Civil Twilight 6:04 AM CDT 8:22 PM CDT
Nautical Twilight 5:33 AM CDT 8:52 PM CDT
Astronomical Twilight 5:01 AM CDT 9:24 PM CDT
Moon 2:29 AM CDT (5/3) 2:15 PM CDT (5/3)
Length of Visible Light 14h 17m
Length of Day
13h 26m
Last Quarter, 37% of the Moon is Illuminated
May 3
Last Quarter
May 9
New
May 17
First Quarter
May 24
Full
May 31
Last Quarter

Hourly Weather History & Observations

Time (CDT) Temp. Windchill Dew Point Humidity Pressure Visibility Wind Dir Wind Speed Gust Speed Precip Events Conditions
12:15 AM 52.0 °F - 46.8 °F 82% 30.15 in 10.0 mi NNW 13.8 mph 20.7 mph N/A   Overcast
12:35 AM 51.8 °F - 46.4 °F 82% 30.15 in 10.0 mi NNW 15.0 mph 23.0 mph N/A   Overcast
12:55 AM 51.3 °F - 46.4 °F 83% 30.15 in 10.0 mi WNW 10.4 mph 17.3 mph N/A   Overcast
1:15 AM 50.9 °F - 46.9 °F 86% 30.15 in 10.0 mi WNW 13.8 mph 18.4 mph N/A   Overcast
1:35 AM 50.9 °F - 46.4 °F 85% 30.14 in 10.0 mi WNW 16.1 mph 25.3 mph N/A   Overcast
1:55 AM 50.9 °F - 45.7 °F 82% 30.14 in 10.0 mi NW 10.4 mph 19.6 mph N/A   Overcast
2:15 AM 50.7 °F - 45.5 °F 82% 30.13 in 10.0 mi WNW 5.8 mph 21.9 mph N/A   Overcast
2:35 AM 50.0 °F - 45.1 °F 83% 30.13 in 10.0 mi NW 11.5 mph - N/A   Overcast
2:55 AM 48.6 °F - 45.1 °F 88% 30.13 in 3.0 mi WNW 15.0 mph 21.9 mph N/A   Overcast
3:15 AM 47.3 °F - 45.3 °F 93% 30.13 in 4.0 mi WNW 12.7 mph 17.3 mph N/A   Overcast
3:35 AM 46.8 °F - 45.0 °F 93% 30.12 in 7.0 mi NW 11.5 mph 21.9 mph N/A   Overcast
3:55 AM 47.1 °F - 44.4 °F 90% 30.13 in 10.0 mi WNW 12.7 mph 17.3 mph N/A   Overcast
4:15 AM 46.8 °F - 43.9 °F 90% 30.13 in 10.0 mi NW 17.3 mph 20.7 mph N/A   Overcast
4:35 AM 47.3 °F - 43.3 °F 86% 30.13 in 10.0 mi NW 17.3 mph 21.9 mph N/A   Overcast
4:55 AM 47.5 °F - 42.8 °F 84% 30.13 in 10.0 mi WNW 6.9 mph 20.7 mph N/A   Overcast
5:15 AM 47.3 °F - 42.8 °F 84% 30.13 in 10.0 mi NW 16.1 mph 25.3 mph N/A   Overcast
5:35 AM 46.9 °F - 43.0 °F 86% 30.14 in 7.0 mi NW 9.2 mph 20.7 mph N/A   Light Drizzle
5:55 AM 45.7 °F 39.8 °F 43.2 °F 91% 30.14 in 10.0 mi WNW 12.7 mph 18.4 mph N/A   Overcast
6:15 AM 45.7 °F 38.8 °F 42.4 °F 88% 30.13 in 10.0 mi NNW 16.1 mph 24.2 mph N/A   Overcast
6:35 AM 46.2 °F 39.3 °F 41.5 °F 84% 30.13 in 10.0 mi NNW 17.3 mph 25.3 mph N/A   Overcast
6:55 AM 46.4 °F 39.5 °F 41.5 °F 83% 30.14 in 10.0 mi NW 17.3 mph 24.2 mph N/A   Overcast
7:15 AM 46.4 °F 39.8 °F 41.4 °F 83% 30.15 in 10.0 mi NW 16.1 mph 23.0 mph N/A   Overcast
7:35 AM 46.0 °F 39.9 °F 41.0 °F 83% 30.16 in 10.0 mi NW 13.8 mph 24.2 mph N/A   Overcast
7:55 AM 46.0 °F 39.9 °F 40.6 °F 81% 30.16 in 10.0 mi NW 13.8 mph 28.8 mph N/A   Overcast
8:15 AM 46.2 °F 40.1 °F 40.1 °F 79% 30.16 in 10.0 mi NW 13.8 mph 21.9 mph N/A   Overcast
8:35 AM 46.6 °F - 40.3 °F 79% 30.16 in 10.0 mi NNW 18.4 mph 23.0 mph N/A   Overcast
8:55 AM 46.6 °F - 40.1 °F 78% 30.16 in 10.0 mi NNW 16.1 mph 23.0 mph N/A   Overcast
9:15 AM 47.1 °F - 40.1 °F 77% 30.16 in 10.0 mi NNW 15.0 mph 26.5 mph N/A   Overcast
9:35 AM 47.7 °F - 40.1 °F 75% 30.16 in 10.0 mi NW 18.4 mph 25.3 mph N/A   Overcast
9:55 AM 48.6 °F - 40.3 °F 73% 30.17 in 10.0 mi NNW 16.1 mph 26.5 mph N/A   Overcast
10:15 AM 48.9 °F - 40.3 °F 72% 30.17 in 10.0 mi NW 16.1 mph 23.0 mph N/A   Overcast
10:35 AM 50.4 °F - 40.6 °F 69% 30.17 in 10.0 mi NNW 19.6 mph 27.6 mph N/A   Overcast
10:55 AM 53.1 °F - 41.2 °F 64% 30.17 in 10.0 mi NW 16.1 mph 23.0 mph N/A   Overcast
11:15 AM 53.6 °F - 40.5 °F 61% 30.17 in 10.0 mi North 18.4 mph 31.1 mph N/A   Scattered Clouds
11:35 AM 54.5 °F - 40.6 °F 60% 30.16 in 10.0 mi NW 17.3 mph 25.3 mph N/A   Scattered Clouds
11:55 AM 55.8 °F - 41.0 °F 58% 30.16 in 10.0 mi NW 17.3 mph 24.2 mph N/A   Scattered Clouds
12:15 PM 57.4 °F - 41.0 °F 54% 30.16 in 10.0 mi NW 19.6 mph 25.3 mph N/A   Clear
12:35 PM 58.6 °F - 40.6 °F 51% 30.15 in 10.0 mi NW 18.4 mph 29.9 mph N/A   Clear
12:55 PM 59.4 °F - 40.8 °F 50% 30.14 in 10.0 mi NW 17.3 mph 25.3 mph N/A   Scattered Clouds
1:15 PM 60.3 °F - 41.0 °F 49% 30.14 in 10.0 mi NNW 15.0 mph 23.0 mph N/A   Scattered Clouds
1:35 PM 61.3 °F - 40.3 °F 46% 30.13 in 10.0 mi NW 16.1 mph 26.5 mph N/A   Scattered Clouds
1:55 PM 62.1 °F - 39.0 °F 43% 30.13 in 10.0 mi NW 21.9 mph 27.6 mph N/A   Clear
2:15 PM 62.6 °F - 36.3 °F 38% 30.11 in 10.0 mi NW 17.3 mph 31.1 mph N/A   Clear
2:35 PM 63.5 °F - 36.5 °F 37% 30.11 in 10.0 mi WNW 17.3 mph 23.0 mph N/A   Clear
2:55 PM 63.9 °F - 33.6 °F 32% 30.10 in 10.0 mi WNW 17.3 mph 29.9 mph N/A   Clear
3:15 PM 64.4 °F - 33.1 °F 31% 30.09 in 10.0 mi NNW 17.3 mph 25.3 mph N/A   Clear
3:35 PM 65.5 °F - 33.3 °F 30% 30.08 in 10.0 mi NNW 12.7 mph 23.0 mph N/A   Clear
3:55 PM 65.8 °F - 32.5 °F 29% 30.07 in 10.0 mi NNW 15.0 mph 23.0 mph N/A   Clear
4:15 PM 65.5 °F - 32.4 °F 29% 30.07 in 10.0 mi WNW 12.7 mph 23.0 mph N/A   Clear
4:35 PM 65.5 °F - 32.2 °F 29% 30.06 in 10.0 mi NW 15.0 mph 23.0 mph N/A   Clear
4:55 PM 65.3 °F - 31.3 °F 28% 30.07 in 10.0 mi NW 19.6 mph 26.5 mph N/A   Clear
5:15 PM 65.3 °F - 31.3 °F 28% 30.06 in 10.0 mi NNW 15.0 mph 25.3 mph N/A   Clear
5:35 PM 65.3 °F - 31.5 °F 28% 30.06 in 10.0 mi NNW 17.3 mph 24.2 mph N/A   Clear
5:55 PM 64.9 °F - 29.5 °F 26% 30.06 in 10.0 mi NNW 10.4 mph 21.9 mph N/A   Clear
6:15 PM 64.6 °F - 30.2 °F 28% 30.06 in 10.0 mi NW 9.2 mph - N/A   Clear
6:35 PM 64.2 °F - 30.7 °F 29% 30.06 in 10.0 mi NNW 15.0 mph 19.6 mph N/A   Clear
6:55 PM 63.7 °F - 30.0 °F 28% 30.06 in 10.0 mi NNW 8.1 mph - N/A   Clear
7:15 PM 62.6 °F - 31.5 °F 31% 30.07 in 10.0 mi NW 9.2 mph - N/A   Clear
7:35 PM 61.3 °F - 32.0 °F 33% 30.07 in 10.0 mi NNW 5.8 mph - N/A   Clear
7:55 PM 59.5 °F - 33.6 °F 38% 30.07 in 10.0 mi NNW 3.5 mph - N/A   Clear
8:15 PM 57.6 °F - 36.0 °F 44% 30.08 in 10.0 mi NNW 3.5 mph - N/A   Clear
8:35 PM 55.4 °F - 39.7 °F 56% 30.09 in 10.0 mi Calm Calm - N/A   Clear
8:55 PM 52.2 °F - 43.7 °F 73% 30.09 in 10.0 mi Calm Calm - N/A   Clear
9:15 PM 50.4 °F - 43.7 °F 78% 30.10 in 10.0 mi Calm Calm - N/A   Clear
9:35 PM 49.5 °F - 43.7 °F 81% 30.10 in 10.0 mi Calm Calm - N/A   Clear
9:55 PM 48.6 °F - 43.9 °F 84% 30.11 in 10.0 mi Calm Calm - N/A   Clear
10:15 PM 47.7 °F - 43.7 °F 86% 30.11 in 10.0 mi Calm Calm - N/A   Clear
10:35 PM 46.9 °F - 43.3 °F 87% 30.11 in 10.0 mi Calm Calm - N/A   Clear
10:55 PM 45.9 °F - 43.3 °F 91% 30.11 in 10.0 mi Calm Calm - N/A   Clear
11:15 PM 45.3 °F - 43.2 °F 92% 30.10 in 10.0 mi Calm Calm - N/A   Clear
11:35 PM 44.8 °F - 43.0 °F 93% 30.10 in 10.0 mi Calm Calm - N/A   Clear
11:55 PM 44.4 °F - 42.8 °F 94% 30.10 in 10.0 mi Calm Calm - N/A   Clear